Simultaneous Nadir Overpasses (SNOs) Predictions

Prediction of SNOs between METOP-B and TERRA Satellite Orbit:

Table of predicted SNOs for the next 14.0 days since TLE Epoch: 3/25/2023
Index Date (METOP-B) Time (METOP-B) Lat,Lon (METOP-B) SZA (METOP-B ) Date (TERRA) Time (TERRA) Lat,Lon (TERRA) SZA (TERRA ) Distance(km) Time Diff (sec)
1 03/25/2023 04:48:59 80.94, 142.72 80.71 03/25/2023 04:48:31 80.95, 142.84 80.72 2.50 28
2 03/27/2023 20:09:56 -80.91, 91.90 100.38 03/27/2023 20:10:21 -80.90, 91.80 100.39 2.01 25
3 03/27/2023 21:00:34 80.96, -99.85 79.73 03/27/2023 20:59:41 80.95, -99.98 79.69 2.30 53
4 03/30/2023 11:31:50 79.31, 23.17 75.85 03/30/2023 11:33:03 78.91, 25.18 75.60 60.84 73
5 03/30/2023 12:21:31 -80.92,-150.78 101.38 03/30/2023 12:21:29 -80.93,-150.70 101.37 1.58 2
6 04/02/2023 03:42:26 80.89, 158.35 77.54 04/02/2023 03:43:14 80.89, 158.34 77.56 0.27 48
7 04/02/2023 04:33:05 -80.93, -33.60 102.38 04/02/2023 04:32:36 -80.92, -33.59 102.39 0.46 29
8 04/04/2023 19:54:00 80.91, -84.24 76.58 04/04/2023 19:54:20 80.91, -84.23 76.59 0.28 20
9 04/04/2023 20:44:39 -80.94, 83.82 103.34 04/04/2023 20:43:42 -80.94, 83.84 103.36 0.31 57
10 04/07/2023 11:14:56 -80.87,-135.15 104.49 04/07/2023 11:16:05 -80.88,-135.04 104.45 2.05 69



Historial Predications of SNOs between METOP-B and TERRA
